Location: Limoges
(45.8500°N, 1.2500°E)
Time: 03:27:23
(UTC+02:00)

ISS - Pass Details

Date: 03 October 2021
Orbit: 417 x 423 km, 51.6° (Epoch: 21 October)

Event Time Altitude Azimuth Distance (km) Brightness Sun altitude
Rises 21:54:09 0° 288° (WNW) 2,365 1.4 -25.3°
Reaches altitude 10° 21:56:41 10° 269° (W) 1,498 -0.1 -25.7°
Enters shadow 21:58:21 17° 241° (WSW) 1,150 -1.2 -26.0°
